19.04.2024;22:00;59
19.04.2024;21:00;63
19.04.2024;20:00;63
19.04.2024;19:00;65
19.04.2024;18:00;68
19.04.2024;17:00;70
19.04.2024;16:00;71
19.04.2024;15:00;72
19.04.2024;14:00;70
19.04.2024;13:00;71
19.04.2024;12:00;71
19.04.2024;11:00;62
19.04.2024;10:00;56
19.04.2024;09:00;42
19.04.2024;08:00;33
19.04.2024;07:00;38
19.04.2024;06:00;52
19.04.2024;05:00;50
19.04.2024;04:00;48
19.04.2024;03:00;41
19.04.2024;02:00;33
19.04.2024;01:00;32
19.04.2024;00:00;31
18.04.2024;23:00;33
18.04.2024;22:00;44
18.04.2024;21:00;57
18.04.2024;20:00;69
18.04.2024;19:00;69
18.04.2024;18:00;76
18.04.2024;17:00;76
18.04.2024;16:00;81
18.04.2024;15:00;74
18.04.2024;14:00;57
18.04.2024;13:00;63
18.04.2024;12:00;54
18.04.2024;11:00;49
18.04.2024;10:00;57
18.04.2024;09:00;59
18.04.2024;08:00;49
18.04.2024;07:00;50
18.04.2024;06:00;52
18.04.2024;05:00;71
18.04.2024;04:00;78
18.04.2024;03:00;78
18.04.2024;02:00;74
18.04.2024;01:00;71
18.04.2024;00:00;71
17.04.2024;23:00;72
